Location: Borbetomagus
(49.6328°N, 8.3592°E)
Time: 05:59:55
(UTC+00:00)

Cosmos 1656 - Pass Details

Date: 19 May 2025
Orbit: 797 x 848 km, 71.1° (Epoch: 22 June)

Event Time Altitude Azimuth Distance (km) Brightness Sun altitude
Rises 19:49:27 0° 330° (NNW) 3,410 8.5 -5.9°
Reaches altitude 10° 19:51:55 10° 328° (NNW) 2,465 7.6 -6.2°
Maximum altitude 19:57:33 73° 245° (WSW) 871 3.9 -6.9°
Drops below altitude 10° 20:03:04 10° 162° (SSE) 2,416 5.5 -7.5°
Enters shadow 20:04:02 - 161° (SSE) 2,784 5.8 -7.7°
